Regional Weather Roundup
Issued by NWS

Home | Current Version | Previous Version | Graphics & Text | Print | Product List | Glossary On
Versions: 1 2 3 4 5 6 7 8 9 10 11 12 13 14 15 16 17 18 19 20 21 22 23 24 25 26 27 28 29 30 31 32 33 34 35 36 37 38 39 40 41 42 43 44 45 46 47 48 49 50
000
ASUS43 KFSD 241110
RWRSD

WEATHER ROUNDUP FOR SOUTH DAKOTA
NATIONAL WEATHER SERVICE SIOUX FALLS SD
600 AM CDT FRI OCT 24 2014

NOTE: "FAIR" INDICATES FEW OR NO CLOUDS BELOW 12,000 FEET WITH NO
SIGNIFICANT WEATHER AND/OR OBSTRUCTIONS TO VISIBILITY.


SDZ001>005-009-010-012>017-241200-
NORTHWEST AND NORTH CENTRAL SOUTH DAKOTA

CITY           SKY/WX    TMP DP  RH WIND       PRES   REMARKS
BUFFALO          N/A     47  28  47 W5        29.83R
FAITH            N/A     52  29  41 W3        29.88R
MOBRIDGE       CLOUDY    42  38  85 SE5       29.83S
$$

SDZ012>016-024>037-041>051-057-063-072>074-241200-
SOUTHWEST AND SOUTH CENTRAL SOUTH DAKOTA

CITY           SKY/WX    TMP DP  RH WIND       PRES   REMARKS
RAPID CTY ARPT MOCLDY    45  32  60 CALM      29.91R
PIERRE         CLOUDY    43  35  73 CALM      29.86R
CUSTER         CLOUDY    50  25  37 W8        30.02R
ELLSWORTH AFB  MOCLDY    51  32  49 W8        29.90R
PHILIP         MOCLDY    39  32  76 W5        29.89R
PINE RIDGE     CLOUDY    39  34  82 W3        29.94S
SPEARFISH      FAIR      45  30  57 SW5       29.94S
WINNER         FAIR      50  33  52 SW7       29.88S
$$

SDZ004>011-016>023-039-040-241200-
NORTHEAST SOUTH DAKOTA

CITY           SKY/WX    TMP DP  RH WIND       PRES   REMARKS
ABERDEEN       MOCLDY    34  33  96 CALM      29.84R FOG
WATERTOWN      MOCLDY    42  41  96 S6        29.83F
SISSETON         N/A     41  40  96 SE5       29.81S
$$

SDZ017-020-022-023-036>040-048>070-241200-
SOUTHEAST SOUTH DAKOTA

CITY           SKY/WX    TMP DP  RH WIND       PRES   REMARKS
SIOUX FALLS    MOCLDY    53  51  93 SW3       29.84S
HURON          FOG       36  36 100 W3        29.84R VSB 1/2
CHAMBERLAIN    CLOUDY    45  36  70 W7        29.86S
MITCHELL       MOCLDY    47  41  80 W9        29.86R
YANKTON        PTCLDY    55  52  88 SW7       29.85F
$$

ABBREVIATIONS USED IN REMARKS
   TC - TEMPERATURE IN CELSIUS
  WCI - WIND CHILL INDEX
   HX - HEAT INDEX
  VSB - VISIBILITY




USA.gov is the U.S. government's official web portal to all federal, state and local government web resources and services.